[[{"header":{"parameterUnit":"m.s-1","parameterCategory":2,"la1":30.2991,"la2":30.254,"lo1":-89.0895,"lo2":-89.0444,"dy":0.0017,"dx":0.0017,"nx":28,"ny":28,"refTime":"2023-07-17T21:00:00:Z","depth":"0","parameterNumber":2,"parameterNumberName":"U-component_of_CURRENTS"},"data":[0,0,0,0,0,0,0,0,0,0,0,0,0,0,0,0,0,0,0,0,0,0,0,0,0,0,0,0,0,0,0,0,0,0,0,0,0,0,0,0,0,0,0,0,0,0,0,0,0,0,0,0,0,0,0,0,0,0,-0.3777,-0.3777,0,-0.3793,-0.3793,-0.3793,-0.3747,-0.3745,-0.3744,-0.3742,-0.368,-0.368,-0.3679,0,0,0,0,0,0,0,0,0,0,0,0,0,-0.3738,-0.3739,-0.3777,-0.3777,-0.3777,-0.3793,-0.3793,-0.3793,-0.3747,-0.3745,-0.3743,-0.3741,-0.368,-0.368,-0.3679,0,0,0,0,0,0,0,0,0,0,0,0,0,-0.3755,-0.3739,-0.3776,-0.3755,-0.3753,-0.3793,-0.3793,-0.3793,-0.3747,-0.3745,-0.3743,-0.3741,-0.368,-0.368,-0.3679,-0.3722,0,0,-0.3678,-0.3678,0,0,0,0,0,0,0,0,-0.3754,-0.3757,-0.3758,-0.3756,-0.3754,-0.3765,-0.3756,-0.3765,-0.3748,-0.375,-0.3742,-0.3739,-0.3702,-0.37,-0.371,-0.3719,-0.3717,-0.3678,-0.3678,-0.3678,-0.3678,0,0,0,0,0,0,0,-0.3753,-0.3756,-0.3784,-0.3758,-0.3756,-0.3755,-0.3755,-0.3758,-0.3738,-0.375,-0.3746,-0.3748,-0.37,-0.3711,-0.3708,-0.3716,-0.3678,-0.3678,-0.3678,-0.3677,-0.3766,-0.3768,0,0,0,0,0,0,-0.375,-0.3755,-0.3783,-0.3784,-0.3748,-0.3758,-0.3758,-0.3764,-0.3739,-0.3734,-0.375,-0.3745,-0.3712,-0.3709,-0.3706,-0.3744,-0.3678,-0.3677,-0.3677,-0.3763,-0.3766,-0.3769,0,0,0,0,0,0,-0.375,-0.3753,-0.3783,-0.3769,-0.3772,-0.376,-0.3769,-0.3766,-0.3763,-0.374,-0.3732,-0.3748,-0.3711,-0.3706,-0.3718,-0.3741,-0.3677,-0.3677,-0.376,-0.3764,-0.3768,-0.3827,0,0,0,0,0,0,-0.3749,-0.3753,-0.3751,-0.3769,-0.3773,-0.3806,-0.3771,-0.3768,-0.3768,-0.3762,-0.3737,-0.3729,-0.3708,-0.3719,-0.3718,-0.3739,-0.3677,-0.3757,-0.3762,-0.3766,-0.3822,-0.3833,-0.3842,0,0,0,0,0,-0.3747,-0.3757,-0.3751,-0.3753,-0.3772,-0.3807,-0.381,-0.3794,-0.377,-0.3781,-0.377,-0.3729,-0.3748,-0.3721,-0.3719,-0.3741,-0.3754,-0.376,-0.3766,-0.3818,-0.3831,-0.3842,0,0,0,0,0,0,-0.3729,-0.3754,-0.3747,-0.376,-0.3781,-0.3799,-0.3801,-0.3798,-0.3801,-0.3787,-0.376,-0.3754,-0.378,-0.3761,-0.3731,-0.3786,-0.3746,-0.3752,-0.3787,-0.3799,-0.3808,-0.379,-0.3676,0,0,0,0,0,-0.3729,-0.3748,-0.3768,-0.3779,-0.3787,-0.3795,-0.3803,-0.3802,-0.3809,-0.3807,-0.3794,-0.379,-0.3809,-0.38,-0.3814,-0.3835,-0.3777,-0.3852,-0.3862,-0.387,-0.3858,-0.3804,-0.3806,-0.3788,-0.3788,-0.3788,0,0,-0.3728,-0.3741,-0.3751,-0.3778,-0.3786,-0.3819,-0.3794,-0.3813,-0.384,-0.3801,-0.3823,-0.3828,-0.3828,-0.3861,-0.3869,-0.3838,-0.3848,-0.3878,-0.3884,-0.3867,-0.381,-0.3811,-0.3812,-0.3792,-0.3791,-0.3791,0,0,-0.3746,-0.3744,-0.3769,-0.3793,-0.3814,-0.3829,-0.3836,-0.3859,-0.3861,-0.3898,-0.3885,-0.3899,-0.3918,-0.3923,-0.3928,-0.4002,-0.3913,-0.4011,-0.4026,-0.3975,-0.3974,-0.3973,-0.3896,-0.3888,-0.4001,-0.4001,-0.4001,0,-0.3739,-0.3767,-0.3782,-0.3813,-0.3827,-0.3836,-0.3866,-0.3891,-0.3918,-0.3918,-0.391,-0.3944,-0.3949,-0.3977,-0.4013,-0.402,-0.396,-0.3975,-0.3982,-0.398,-0.3977,-0.3899,-0.3888,-0.4005,-0.4004,-0.4004,-0.4004,0,-0.3782,-0.38,-0.3815,-0.3859,-0.3886,-0.391,-0.3947,-0.3966,-0.3969,-0.3983,-0.4009,-0.4023,-0.4025,-0.4052,-0.4057,-0.406,-0.4013,-0.4007,-0.3938,-0.3982,-0.3898,-0.3886,-0.401,-0.4009,-0.4008,-0.4007,0,0,-0.3764,-0.3831,-0.3833,-0.3844,-0.3903,-0.3922,-0.3977,-0.4009,-0.401,-0.4047,-0.4041,-0.4108,-0.4087,-0.4094,-0.4096,-0.4066,-0.4019,-0.403,-0.4025,-0.3929,-0.3869,-0.3629,-0.3592,-0.3998,-0.3997,-0.3996,-0.3813,0,-0.3778,-0.3832,-0.3872,-0.3915,-0.3932,-0.3966,-0.4009,-0.4044,-0.4057,-0.406,-0.4074,-0.4084,-0.4111,-0.4101,-0.4084,-0.4046,-0.399,-0.4066,-0.3863,-0.3856,-0.3616,-0.3572,-0.3367,-0.3168,-0.3801,-0.3799,-0.3798,0,-0.3785,-0.382,-0.3863,-0.3907,-0.3917,-0.3953,-0.3976,-0.4019,-0.4045,-0.4053,-0.406,-0.4061,-0.4063,-0.4061,-0.3982,-0.4021,-0.3945,-0.3902,-0.3894,-0.3633,-0.3592,-0.3231,-0.3121,-0.3042,-0.3778,-0.378,-0.3781,0,-0.3723,-0.3794,-0.3817,-0.3839,-0.3912,-0.3924,-0.3958,-0.3999,-0.4007,-0.403,-0.4009,-0.4024,-0.3991,-0.394,-0.3863,-0.3915,-0.372,-0.3779,-0.3482,-0.3464,-0.3228,-0.3189,-0.2988,-0.3675,-0.3675,-0.3676,-0.3676,0,-0.3695,-0.3701,-0.3783,-0.3793,-0.3802,-0.3875,-0.3877,-0.3914,-0.3943,-0.3919,-0.3981,-0.3928,-0.3952,-0.3853,-0.3812,-0.3567,-0.3665,-0.3444,-0.3385,-0.3243,-0.321,-0.308,-0.3168,-0.3669,-0.367,-0.3672,-0.3673,0,-0.3593,-0.3661,-0.3675,-0.3752,-0.3767,-0.3765,-0.3816,-0.3811,-0.3859,-0.382,-0.382,-0.3828,-0.3693,-0.365,-0.3533,-0.3438,-0.3181,-0.3165,-0.2976,-0.2894,-0.2546,-0.2648,-0.2431,-0.2378,-0.2819,-0.2811,-0.2805,0,-0.3529,-0.3533,-0.3609,-0.3611,-0.3635,-0.3655,-0.3663,-0.3746,-0.3745,-0.3726,-0.3685,-0.3572,-0.3443,-0.3167,-0.2984,-0.278,-0.286,-0.2464,-0.253,-0.2438,-0.2513,-0.2627,-0.2613,-0.226,-0.225,-0.2242,-0.2235,0,-0.3382,-0.3419,-0.3447,-0.3463,-0.3473,-0.3488,-0.3511,-0.3494,-0.356,-0.3516,-0.3404,-0.3297,-0.3014,-0.2669,-0.2381,-0.2278,-0.2374,-0.228,-0.2246,-0.2076,-0.2131,-0.2079,-0.2482,-0.2161,-0.2169,-0.2174,-0.2178,-0.2181,-0.3229,-0.323,-0.3269,-0.3266,-0.3298,-0.3275,-0.3205,-0.3238,-0.3179,-0.303,-0.3058,-0.2744,-0.2366,-0.1921,-0.1837,-0.1498,-0.1794,-0.1448,-0.1585,-0.1711,-0.1629,-0.1829,-0.1404,-0.1407,-0.1409,-0.1412,-0.1414,0,-0.2976,-0.3024,-0.305,-0.3052,-0.3014,-0.3087,-0.3056,-0.2938,-0.2786,-0.2622,-0.246,-0.1849,-0.1473,-0.1223,-0.0843,-0.08,-0.0924,-0.0852,-0.1018,-0.1046,-0.1216,-0.1153,-0.0579,-0.0579,-0.0579,-0.0579,-0.0579,-0.0579,-0.2834,-0.2786,-0.284,-0.2733,-0.2743,-0.2586,-0.2512,-0.238,-0.2201,-0.1742,-0.1343,-0.1099,-0.0739,-0.0525,-0.0381,-0.043,-0.0563,-0.0559,-0.0716,-0.0881,-0.0951,-0.1017,-0.097,-0.0367,-0.0367,-0.0444,-0.0445,-0.0446]},{"header":{"parameterUnit":"m.s-1","parameterCategory":2,"la1":30.2991,"la2":30.254,"lo1":-89.0895,"lo2":-89.0444,"dy":0.0017,"dx":0.0017,"nx":28,"ny":28,"refTime":"2023-07-17T21:00:00:Z","depth":"0","parameterNumber":3,"parameterNumberName":"V-component_of_CURRENTS"},"data":[0,0,0,0,0,0,0,0,0,0,0,0,0,0,0,0,0,0,0,0,0,0,0,0,0,0,0,0,0,0,0,0,0,0,0,0,0,0,0,0,0,0,0,0,0,0,0,0,0,0,0,0,0,0,0,0,0,0,-0.1411,-0.1409,0,-0.124,-0.1238,-0.1236,-0.1106,-0.1105,-0.1103,-0.1102,-0.0914,-0.0911,-0.0907,0,0,0,0,0,0,0,0,0,0,0,0,0,-0.149,-0.149,-0.1411,-0.1409,-0.1407,-0.1241,-0.1238,-0.1236,-0.1106,-0.1104,-0.1103,-0.1102,-0.0916,-0.0911,-0.0906,0,0,0,0,0,0,0,0,0,0,0,0,0,-0.1401,-0.149,-0.1411,-0.1322,-0.1313,-0.1241,-0.1238,-0.1235,-0.1106,-0.1104,-0.1103,-0.1101,-0.0917,-0.0912,-0.0906,-0.0904,0,0,-0.0888,-0.0885,0,0,0,0,0,0,0,0,-0.1406,-0.1398,-0.1337,-0.1328,-0.1317,-0.1193,-0.1197,-0.1124,-0.1107,-0.1184,-0.1102,-0.11,-0.1008,-0.0994,-0.0965,-0.0895,-0.0887,-0.0887,-0.0884,-0.0881,-0.088,0,0,0,0,0,0,0,-0.1413,-0.1404,-0.1342,-0.1335,-0.1323,-0.1245,-0.1232,-0.1182,-0.1107,-0.1177,-0.1167,-0.115,-0.1002,-0.0971,-0.096,-0.0885,-0.0887,-0.0882,-0.0879,-0.0876,-0.0784,-0.0785,0,0,0,0,0,0,-0.1445,-0.1411,-0.1348,-0.1337,-0.1359,-0.1246,-0.1231,-0.1234,-0.1107,-0.1087,-0.1152,-0.1145,-0.0982,-0.0967,-0.0953,-0.0937,-0.0881,-0.0876,-0.0872,-0.0783,-0.0784,-0.0786,0,0,0,0,0,0,-0.1447,-0.1442,-0.1355,-0.1369,-0.1353,-0.1248,-0.1252,-0.1232,-0.12,-0.1089,-0.1067,-0.114,-0.098,-0.0961,-0.0915,-0.0929,-0.0873,-0.0868,-0.0782,-0.0783,-0.0785,-0.0909,0,0,0,0,0,0,-0.1451,-0.1444,-0.1464,-0.1373,-0.1353,-0.1328,-0.1253,-0.123,-0.1192,-0.1181,-0.1072,-0.1052,-0.0978,-0.0924,-0.0909,-0.092,-0.0863,-0.078,-0.0783,-0.0784,-0.0904,-0.0915,-0.0925,0,0,0,0,0,-0.1455,-0.1499,-0.1467,-0.1459,-0.1383,-0.133,-0.1313,-0.123,-0.1194,-0.1193,-0.1116,-0.1055,-0.0926,-0.0921,-0.0902,-0.0912,-0.0779,-0.0782,-0.0784,-0.0899,-0.0913,-0.0924,0,0,0,0,0,0,-0.1544,-0.1487,-0.145,-0.1474,-0.1411,-0.1308,-0.1298,-0.1246,-0.1185,-0.1174,-0.1069,-0.1046,-0.1009,-0.0951,-0.0948,-0.0892,-0.0843,-0.0842,-0.0937,-0.0948,-0.0959,-0.0985,-0.0858,0,0,0,0,0,-0.1576,-0.1591,-0.151,-0.1527,-0.1499,-0.1402,-0.1372,-0.1319,-0.1248,-0.1218,-0.114,-0.1065,-0.1006,-0.0972,-0.0912,-0.0887,-0.0855,-0.0881,-0.0892,-0.0901,-0.0911,-0.09,-0.0911,-0.0794,-0.0793,-0.0793,0,0,-0.1616,-0.1584,-0.1593,-0.1546,-0.1484,-0.1458,-0.1379,-0.1345,-0.1325,-0.1211,-0.1168,-0.1101,-0.1009,-0.0973,-0.0952,-0.0925,-0.0917,-0.0904,-0.0912,-0.0917,-0.0904,-0.0915,-0.0925,-0.0795,-0.0795,-0.0795,0,0,-0.1686,-0.167,-0.1691,-0.165,-0.1578,-0.1516,-0.1515,-0.1423,-0.1383,-0.1342,-0.1254,-0.1204,-0.111,-0.1048,-0.1004,-0.1042,-0.0976,-0.1019,-0.1086,-0.1076,-0.1086,-0.1094,-0.1072,-0.1077,-0.1021,-0.1021,-0.1021,0,-0.1728,-0.1741,-0.1687,-0.1682,-0.1651,-0.1551,-0.1546,-0.15,-0.1408,-0.1384,-0.1348,-0.1222,-0.1147,-0.1099,-0.1103,-0.1066,-0.1046,-0.1046,-0.1092,-0.1099,-0.1106,-0.108,-0.1084,-0.1027,-0.1027,-0.1026,-0.1025,0,-0.1791,-0.1799,-0.1805,-0.1763,-0.1731,-0.1715,-0.1636,-0.1608,-0.1549,-0.1493,-0.1443,-0.1348,-0.127,-0.1242,-0.1178,-0.1179,-0.1145,-0.1112,-0.1066,-0.1126,-0.1094,-0.1096,-0.1036,-0.1034,-0.1032,-0.1031,0,0,-0.1867,-0.1854,-0.1851,-0.1841,-0.1771,-0.1746,-0.1727,-0.167,-0.1657,-0.1586,-0.1567,-0.1472,-0.1418,-0.1367,-0.1287,-0.1273,-0.1295,-0.1219,-0.1215,-0.1207,-0.1271,-0.1122,-0.1109,-0.1275,-0.1276,-0.1277,-0.1232,0,-0.1912,-0.1942,-0.1913,-0.1917,-0.191,-0.1834,-0.182,-0.1767,-0.1712,-0.1677,-0.1594,-0.1545,-0.1466,-0.1433,-0.141,-0.1316,-0.1307,-0.131,-0.1205,-0.1202,-0.1071,-0.1109,-0.0988,-0.0927,-0.1234,-0.1234,-0.1235,0,-0.1955,-0.1969,-0.2,-0.198,-0.1968,-0.1962,-0.1913,-0.189,-0.1828,-0.1789,-0.1737,-0.1664,-0.1608,-0.1549,-0.145,-0.1456,-0.1382,-0.132,-0.1316,-0.1135,-0.1056,-0.0914,-0.0918,-0.0669,-0.1237,-0.1237,-0.1237,0,-0.2005,-0.2014,-0.2045,-0.2039,-0.2011,-0.2011,-0.1984,-0.1928,-0.191,-0.1865,-0.1845,-0.1772,-0.172,-0.1644,-0.1484,-0.1483,-0.1379,-0.1357,-0.1159,-0.1147,-0.0999,-0.0972,-0.0756,-0.1319,-0.1319,-0.1319,-0.1319,0,-0.2048,-0.2065,-0.2078,-0.2093,-0.2115,-0.2072,-0.208,-0.2045,-0.2007,-0.198,-0.1908,-0.1857,-0.1746,-0.1649,-0.1532,-0.1329,-0.1412,-0.1175,-0.1128,-0.1036,-0.1013,-0.0751,-0.0707,-0.1318,-0.1318,-0.1318,-0.1319,0,-0.2085,-0.21,-0.2134,-0.2142,-0.2142,-0.2157,-0.2135,-0.2139,-0.2094,-0.2062,-0.2051,-0.1937,-0.1797,-0.1662,-0.1515,-0.1359,-0.1062,-0.1119,-0.1004,-0.0942,-0.0508,-0.0479,-0.0331,-0.0206,-0.0908,-0.0904,-0.0901,0,-0.2094,-0.2127,-0.2175,-0.2202,-0.2208,-0.2221,-0.2224,-0.2187,-0.2174,-0.2077,-0.2057,-0.1932,-0.1795,-0.1511,-0.1255,-0.103,-0.0911,-0.0757,-0.0723,-0.0458,-0.0392,-0.042,-0.0329,-0.0588,-0.0583,-0.0578,-0.0575,0,-0.2104,-0.214,-0.2183,-0.2245,-0.2272,-0.2292,-0.2286,-0.2284,-0.2216,-0.2158,-0.2029,-0.1921,-0.1621,-0.1274,-0.0959,-0.0807,-0.0568,-0.0651,-0.0419,-0.0153,-0.0133,0.0003,-0.0641,-0.0534,-0.0538,-0.0541,-0.0543,-0.0545,-0.2085,-0.2144,-0.2208,-0.2256,-0.2307,-0.2322,-0.2288,-0.2272,-0.2212,-0.2025,-0.196,-0.162,-0.1219,-0.0746,-0.058,-0.007,-0.025,0.0101,0.0102,0.0041,0.0211,-0.0321,-0.0124,-0.0125,-0.0127,-0.0128,-0.0129,0,-0.2002,-0.2106,-0.219,-0.2247,-0.2284,-0.2305,-0.2285,-0.2191,-0.2074,-0.1826,-0.1642,-0.0947,-0.052,-0.0106,0.0467,0.0699,0.0675,0.0802,0.0795,0.0842,0.0368,0.0444,0.0827,0.0827,0.0826,0.0826,0.0826,0.0825,-0.1949,-0.2031,-0.2107,-0.2165,-0.2212,-0.2147,-0.2104,-0.1975,-0.1743,-0.1215,-0.068,-0.032,0.0306,0.08,0.1326,0.1371,0.1511,0.1434,0.1497,0.1209,0.1144,0.1082,0.1174,0.1703,0.1703,0.2005,0.2009,0.2011]}],[{"header":{"parameterUnit":"m.s-1","parameterCategory":2,"la1":30.2991,"la2":30.254,"lo1":-89.0895,"lo2":-89.0444,"dy":0.0017,"dx":0.0017,"nx":28,"ny":28,"refTime":"2023-07-17T21:00:00:Z","depth":"2","parameterNumber":2,"parameterNumberName":"U-component_of_CURRENTS"},"data":[0,0,0,0,0,0,0,0,0,0,0,0,0,0,0,0,0,0,0,0,0,0,0,0,0,0,0,0,0,0,0,0,0,0,0,0,0,0,0,0,0,0,0,0,0,0,0,0,0,0,0,0,0,0,0,0,0,0,-0.2116,-0.2117,0,-0.2241,-0.2242,-0.2244,-0.2309,-0.2309,-0.2309,-0.2309,-0.2432,-0.2435,-0.2438,0,0,0,0,0,0,0,0,0,0,0,0,0,-0.2074,-0.2073,-0.2115,-0.2117,-0.2119,-0.2241,-0.2242,-0.2244,-0.2309,-0.2309,-0.2309,-0.2309,-0.2431,-0.2434,-0.2438,0,0,0,0,0,0,0,0,0,0,0,0,0,-0.2135,-0.2073,-0.2115,-0.2165,-0.2171,-0.224,-0.2242,-0.2245,-0.2309,-0.2309,-0.2309,-0.2309,-0.2429,-0.2434,-0.2439,-0.2467,0,0,-0.2454,-0.2456,0,0,0,0,0,0,0,0,-0.2131,-0.2136,-0.2156,-0.2162,-0.2168,-0.2259,-0.2273,-0.2319,-0.2308,-0.2257,-0.2309,-0.2309,-0.2373,-0.2383,-0.2407,-0.2473,-0.2478,-0.2454,-0.2457,-0.2459,-0.246,0,0,0,0,0,0,0,-0.2127,-0.2132,-0.2165,-0.2158,-0.2165,-0.223,-0.2237,-0.2283,-0.2313,-0.2261,-0.2266,-0.2279,-0.2377,-0.2402,-0.241,-0.248,-0.2454,-0.2458,-0.2461,-0.2463,-0.2513,-0.2512,0,0,0,0,0,0,-0.2103,-0.2127,-0.2162,-0.2169,-0.2149,-0.223,-0.2239,-0.223,-0.2313,-0.2326,-0.2279,-0.2282,-0.2394,-0.2404,-0.2415,-0.2428,-0.2459,-0.2463,-0.2466,-0.2515,-0.2513,-0.2511,0,0,0,0,0,0,-0.2101,-0.2104,-0.2156,-0.2153,-0.2164,-0.223,-0.222,-0.2232,-0.228,-0.2327,-0.2339,-0.2317,-0.2394,-0.2408,-0.2452,-0.2434,-0.2466,-0.247,-0.2517,-0.2514,-0.2512,-0.2472,0,0,0,0,0,0,-0.2099,-0.2102,-0.2088,-0.215,-0.2163,-0.2191,-0.2221,-0.2235,-0.2287,-0.2292,-0.2363,-0.2373,-0.2395,-0.2444,-0.2456,-0.2442,-0.2474,-0.2519,-0.2516,-0.2513,-0.2475,-0.2469,-0.2463,0,0,0,0,0,-0.2096,-0.2076,-0.2086,-0.2091,-0.2141,-0.2191,-0.2204,-0.2253,-0.2289,-0.23,-0.2344,-0.2372,-0.2432,-0.2448,-0.2463,-0.2449,-0.252,-0.2517,-0.2513,-0.2478,-0.247,-0.2463,0,0,0,0,0,0,-0.2064,-0.2083,-0.2095,-0.2084,-0.2131,-0.2202,-0.2224,-0.2267,-0.2317,-0.2328,-0.2378,-0.239,-0.2403,-0.2437,-0.2452,-0.2447,-0.2471,-0.247,-0.2439,-0.2432,-0.2426,-0.2428,-0.2478,0,0,0,0,0,-0.2045,-0.2021,-0.2075,-0.2065,-0.2096,-0.2168,-0.2199,-0.2233,-0.2286,-0.2311,-0.2357,-0.239,-0.2397,-0.2427,-0.2434,-0.247,-0.2469,-0.2458,-0.2452,-0.2447,-0.2454,-0.2439,-0.2433,-0.25,-0.25,-0.25,0,0,-0.2017,-0.2036,-0.2016,-0.2055,-0.2105,-0.2132,-0.2187,-0.2236,-0.2252,-0.2315,-0.2355,-0.2371,-0.2395,-0.24,-0.241,-0.2437,-0.2419,-0.2442,-0.2438,-0.2448,-0.2435,-0.2429,-0.2423,-0.2497,-0.2498,-0.2498,0,0,-0.198,-0.1989,-0.1971,-0.2014,-0.208,-0.2116,-0.2135,-0.2213,-0.2244,-0.2279,-0.2304,-0.2322,-0.2364,-0.2371,-0.238,-0.2353,-0.237,-0.2347,-0.2348,-0.2332,-0.2327,-0.2323,-0.2283,-0.2276,-0.2365,-0.2365,-0.2364,0,-0.1959,-0.1945,-0.198,-0.2007,-0.2036,-0.211,-0.2128,-0.2166,-0.224,-0.2263,-0.2275,-0.2311,-0.234,-0.2344,-0.2329,-0.2341,-0.233,-0.2379,-0.2326,-0.2322,-0.2318,-0.2279,-0.2272,-0.2362,-0.2362,-0.2363,-0.2363,0,-0.1921,-0.1928,-0.194,-0.1971,-0.2002,-0.2035,-0.2093,-0.2128,-0.2169,-0.2203,-0.2219,-0.2249,-0.2276,-0.2271,-0.2303,-0.2289,-0.2285,-0.2304,-0.2351,-0.231,-0.227,-0.2263,-0.2359,-0.236,-0.236,-0.2361,0,0,-0.1869,-0.1895,-0.1911,-0.1925,-0.1994,-0.2019,-0.2045,-0.209,-0.2114,-0.2152,-0.2172,-0.2184,-0.2217,-0.2228,-0.2259,-0.2264,-0.2223,-0.2286,-0.2286,-0.2256,-0.217,-0.206,-0.2041,-0.224,-0.2239,-0.2238,-0.2142,0,-0.1852,-0.1852,-0.1878,-0.1898,-0.1919,-0.1983,-0.1999,-0.2043,-0.2081,-0.2113,-0.2146,-0.2158,-0.2194,-0.2207,-0.2216,-0.2239,-0.2207,-0.2246,-0.2208,-0.2206,-0.2121,-0.2031,-0.1874,-0.1766,-0.2135,-0.2134,-0.2133,0,-0.1847,-0.1844,-0.1834,-0.187,-0.1889,-0.1897,-0.1948,-0.1971,-0.2027,-0.2059,-0.2089,-0.212,-0.2152,-0.2166,-0.2171,-0.22,-0.2172,-0.217,-0.2166,-0.2079,-0.2082,-0.1872,-0.174,-0.2121,-0.2122,-0.2123,-0.2124,0,-0.1806,-0.1842,-0.1815,-0.1831,-0.1862,-0.1875,-0.1896,-0.1952,-0.1971,-0.2024,-0.2036,-0.2081,-0.2097,-0.2097,-0.2119,-0.2144,-0.2096,-0.2126,-0.1976,-0.1968,-0.1834,-0.1815,-0.2062,-0.2062,-0.2063,-0.2063,-0.2063,0,-0.1777,-0.1778,-0.1795,-0.1779,-0.1777,-0.1829,-0.1834,-0.1874,-0.1917,-0.1929,-0.2001,-0.2002,-0.2082,-0.208,-0.2088,-0.201,-0.2063,-0.1946,-0.1928,-0.181,-0.179,-0.2115,-0.2123,-0.2059,-0.206,-0.2061,-0.2061,0,-0.1709,-0.1722,-0.1714,-0.1735,-0.1748,-0.1743,-0.1779,-0.1788,-0.1843,-0.1858,-0.1869,-0.194,-0.1929,-0.1963,-0.1958,-0.1944,-0.1898,-0.1836,-0.1681,-0.1645,-0.1784,-0.179,-0.1658,-0.1653,-0.1649,-0.1646,-0.1643,0,-0.1648,-0.1642,-0.1659,-0.1655,-0.1653,-0.1664,-0.1676,-0.1737,-0.175,-0.1808,-0.1805,-0.1804,-0.1777,-0.1725,-0.168,-0.1608,-0.1726,-0.1439,-0.1446,-0.1741,-0.1739,-0.1752,-0.1763,-0.1244,-0.1238,-0.1233,-0.1229,0,-0.1549,-0.1573,-0.1546,-0.1541,-0.1548,-0.1552,-0.1575,-0.1576,-0.1654,-0.1664,-0.1662,-0.1634,-0.1553,-0.1423,-0.1337,-0.1286,-0.1453,-0.1333,-0.167,-0.1373,-0.1343,-0.1344,-0.137,-0.1186,-0.119,-0.1193,-0.1196,-0.1197,-0.1495,-0.1451,-0.1441,-0.1425,-0.1436,-0.1431,-0.1397,-0.144,-0.1436,-0.1437,-0.1492,-0.141,-0.1357,-0.1127,-0.1039,-0.0974,-0.1079,-0.1066,-0.1084,-0.1107,-0.1079,-0.1044,-0.0823,-0.0825,-0.0827,-0.0829,-0.083,0,-0.1417,-0.1372,-0.1335,-0.1309,-0.1276,-0.1317,-0.132,-0.1273,-0.1236,-0.1273,-0.1246,-0.1051,-0.0923,-0.0876,-0.0686,-0.0635,-0.0659,-0.062,-0.0676,-0.0716,-0.0752,-0.0712,-0.0356,-0.0355,-0.0354,-0.0354,0,0,-0.1391,-0.1293,-0.1244,-0.1153,-0.114,-0.1058,-0.1032,-0.0985,-0.0981,-0.0916,-0.0879,-0.0945,-0.0888,-0.0677,-0.0574,-0.0455,-0.0601,-0.0411,-0.0783,-0.0892,-0.0929,-0.0982,-0.0959,0,0,0,0,0]},{"header":{"parameterUnit":"m.s-1","parameterCategory":2,"la1":30.2991,"la2":30.254,"lo1":-89.0895,"lo2":-89.0444,"dy":0.0017,"dx":0.0017,"nx":28,"ny":28,"refTime":"2023-07-17T21:00:00:Z","depth":"2","parameterNumber":3,"parameterNumberName":"V-component_of_CURRENTS"},"data":[0,0,0,0,0,0,0,0,0,0,0,0,0,0,0,0,0,0,0,0,0,0,0,0,0,0,0,0,0,0,0,0,0,0,0,0,0,0,0,0,0,0,0,0,0,0,0,0,0,0,0,0,0,0,0,0,0,0,-0.0481,-0.048,0,-0.0351,-0.0349,-0.0347,-0.0246,-0.0246,-0.0245,-0.0245,0.0032,0.0039,0.0046,0,0,0,0,0,0,0,0,0,0,0,0,0,-0.0577,-0.0575,-0.0481,-0.048,-0.0478,-0.0351,-0.0349,-0.0346,-0.0246,-0.0246,-0.0245,-0.0244,0.003,0.0038,0.0046,0,0,0,0,0,0,0,0,0,0,0,0,0,-0.0495,-0.0575,-0.0481,-0.0416,-0.041,-0.0351,-0.0349,-0.0346,-0.0246,-0.0246,-0.0245,-0.0244,0.0027,0.0037,0.0047,0.0095,0,0,0.0079,0.0083,0,0,0,0,0,0,0,0,-0.05,-0.0491,-0.0427,-0.0421,-0.0413,-0.0318,-0.0281,-0.0193,-0.0247,-0.0304,-0.0245,-0.0244,-0.0075,-0.0056,-0.0029,0.0108,0.012,0.008,0.0086,0.0091,0.0093,0,0,0,0,0,0,0,-0.0506,-0.0496,-0.0424,-0.0426,-0.0418,-0.0372,-0.0359,-0.0264,-0.0189,-0.0299,-0.0292,-0.0285,-0.0069,-0.0039,-0.0021,0.0124,0.008,0.0089,0.0095,0.0099,0.0352,0.0352,0,0,0,0,0,0,-0.0536,-0.0502,-0.0429,-0.0421,-0.0461,-0.0371,-0.0357,-0.0345,-0.0193,-0.0172,-0.0286,-0.0281,-0.0057,-0.0034,-0.0011,0.0057,0.009,0.01,0.0106,0.0351,0.0352,0.0352,0,0,0,0,0,0,-0.0538,-0.053,-0.0434,-0.0462,-0.0447,-0.0371,-0.0358,-0.0343,-0.0305,-0.0186,-0.016,-0.0263,-0.0056,-0.0026,0.0065,0.0068,0.0105,0.0114,0.0351,0.0351,0.0352,0.0191,0,0,0,0,0,0,-0.0541,-0.0532,-0.0528,-0.0464,-0.0447,-0.0402,-0.0359,-0.0342,-0.0305,-0.0296,-0.0157,-0.0132,-0.0053,0.0049,0.0075,0.0083,0.0122,0.035,0.0351,0.0352,0.0196,0.0186,0.0178,0,0,0,0,0,-0.0545,-0.0543,-0.0529,-0.052,-0.0447,-0.0403,-0.0389,-0.0329,-0.0305,-0.029,-0.0207,-0.0136,0.0075,0.0057,0.0088,0.0099,0.0349,0.0351,0.0352,0.02,0.0188,0.0179,0,0,0,0,0,0,-0.0574,-0.0532,-0.0514,-0.0497,-0.0458,-0.0387,-0.0373,-0.0333,-0.0256,-0.0247,-0.0132,-0.0101,-0.0026,0.0066,0.0043,0.0178,0.0227,0.0234,0.01,0.0091,0.0082,0.0069,0.0131,0,0,0,0,0,-0.0586,-0.0576,-0.0527,-0.0514,-0.0503,-0.044,-0.0414,-0.0376,-0.0307,-0.0272,-0.0182,-0.0079,0.0003,0.0067,0.015,0.0232,0.0305,0.0264,0.0255,0.0247,0.026,0.0337,0.0335,0.0356,0.0356,0.0356,0,0,-0.059,-0.057,-0.056,-0.0521,-0.0489,-0.0476,-0.0421,-0.039,-0.0369,-0.0252,-0.0191,-0.0114,0.0013,0.0084,0.0131,0.0166,0.0278,0.0248,0.024,0.0258,0.0338,0.0336,0.0334,0.0357,0.0357,0.0357,0,0,-0.0611,-0.0586,-0.059,-0.0566,-0.0533,-0.05,-0.0496,-0.0432,-0.0393,-0.0334,-0.0253,-0.018,-0.0038,0.0041,0.0102,0.0106,0.0212,0.0146,0.0112,0.0185,0.0183,0.0183,0.0254,0.0261,0.016,0.016,0.0159,0,-0.0618,-0.0617,-0.0583,-0.0586,-0.0573,-0.0519,-0.052,-0.0477,-0.0388,-0.0352,-0.0332,-0.0152,-0.0063,0.0037,0.0033,0.0084,0.0148,0.013,0.0169,0.017,0.0173,0.0246,0.0256,0.0152,0.0153,0.0154,0.0154,0,-0.0645,-0.0641,-0.0645,-0.0637,-0.0619,-0.0609,-0.0564,-0.0534,-0.0492,-0.0435,-0.0346,-0.024,-0.0124,-0.0091,-0.0025,0.0047,0.0093,0.0124,0.0181,0.016,0.024,0.0253,0.0141,0.0144,0.0146,0.0148,0,0,-0.0662,-0.0663,-0.0663,-0.0671,-0.0644,-0.0633,-0.0616,-0.0569,-0.0543,-0.0465,-0.041,-0.0295,-0.0233,-0.0157,-0.0068,0.0004,0.0052,0.0071,0.0078,0.0116,0.022,0.0222,0.0237,0.0088,0.009,0.0091,0.0262,0,-0.069,-0.0716,-0.0704,-0.0721,-0.073,-0.0689,-0.0678,-0.0629,-0.0569,-0.0505,-0.0396,-0.0317,-0.0256,-0.0207,-0.013,0.0023,0.0084,0.0004,0.0261,0.0269,0.0251,0.0251,0.0221,0.0369,0.0276,0.0278,0.0279,0,-0.072,-0.0733,-0.0762,-0.0767,-0.0768,-0.0772,-0.0742,-0.0716,-0.0621,-0.057,-0.0475,-0.0385,-0.0253,-0.0223,0.0012,-0.0037,0.0074,0.0175,0.0185,0.0258,0.0295,0.0385,0.0398,0.0303,0.0301,0.0299,0.0297,0,-0.0754,-0.0771,-0.0799,-0.0799,-0.0799,-0.0804,-0.0796,-0.0732,-0.0703,-0.0602,-0.0564,-0.0405,-0.0309,-0.0153,0.0064,0.004,0.0319,0.0311,0.0413,0.0415,0.0479,0.0483,0.0441,0.0441,0.0441,0.044,0.044,0,-0.0783,-0.0803,-0.0821,-0.0834,-0.0865,-0.0847,-0.0848,-0.0816,-0.0752,-0.07,-0.0596,-0.0512,-0.0288,-0.0101,0.0065,0.0303,0.0325,0.0415,0.0461,0.0421,0.0418,0.0439,0.0436,0.0447,0.0445,0.0444,0.0443,0,-0.0808,-0.0821,-0.0856,-0.0875,-0.0884,-0.0903,-0.0897,-0.0884,-0.0829,-0.0757,-0.0732,-0.0558,-0.0312,-0.0079,0.0212,0.0313,0.0528,0.0595,0.0533,0.0566,0.0566,0.0554,0.0705,0.0707,0.0708,0.0709,0.071,0,-0.0819,-0.0844,-0.0889,-0.0912,-0.0923,-0.0944,-0.0954,-0.0923,-0.0897,-0.077,-0.0732,-0.051,-0.0312,0.0103,0.0338,0.0625,0.0619,0.0704,0.0631,0.0565,0.0595,0.058,0.0566,0.066,0.066,0.0661,0.0661,0,-0.0838,-0.0861,-0.089,-0.0943,-0.0972,-0.0995,-0.0999,-0.0992,-0.0927,-0.0852,-0.069,-0.0529,-0.0152,0.0167,0.0495,0.0632,0.0651,0.0715,0.0711,0.0574,0.053,0.0555,0.0543,0.0664,0.0664,0.0663,0.0663,0.0663,-0.0846,-0.0878,-0.0923,-0.097,-0.1005,-0.1027,-0.1032,-0.1,-0.0944,-0.0792,-0.0637,-0.0355,-0.0104,0.0387,0.0576,0.0719,0.0724,0.0736,0.0732,0.0729,0.067,0.0628,0.077,0.0771,0.0771,0.0771,0.0771,0,-0.0856,-0.0895,-0.0941,-0.1001,-0.1042,-0.1052,-0.1049,-0.1022,-0.0935,-0.0708,-0.0504,-0.0207,0.0139,0.0391,0.0633,0.0753,0.0716,0.0741,0.0685,0.0683,0.0681,0.0616,0.0704,0.0704,0.0704,0.0704,0,0,-0.0866,-0.0913,-0.0945,-0.1018,-0.1057,-0.1091,-0.1083,-0.101,-0.085,-0.0623,-0.0389,-0.0062,0.0226,0.0371,0.053,0.0642,0.0615,0.0622,0.0669,0.0586,0.0581,0.0678,0.0576,0,0,0,0,0]}],[{"header":{"parameterUnit":"m.s-1","parameterCategory":2,"la1":30.2991,"la2":30.254,"lo1":-89.0895,"lo2":-89.0444,"dy":0.0017,"dx":0.0017,"nx":28,"ny":28,"refTime":"2023-07-17T21:00:00:Z","depth":"4","parameterNumber":2,"parameterNumberName":"U-component_of_CURRENTS"},"data":[0,0,0,0,0,0,0,0,0,0,0,0,0,0,0,0,0,0,0,0,0,0,0,0,0,0,0,0,0,0,0,0,0,0,0,0,0,0,0,0,0,0,0,0,0,0,0,0,0,0,0,0,0,0,0,0,0,0,-0.1332,-0.1332,0,-0.1359,-0.136,-0.136,-0.1382,-0.1382,-0.1383,-0.1383,-0.142,-0.142,-0.1421,0,0,0,0,0,0,0,0,0,0,0,0,0,-0.1314,-0.1314,-0.1332,-0.1332,-0.1333,-0.1359,-0.136,-0.136,-0.1382,-0.1382,-0.1383,-0.1383,-0.1419,-0.142,-0.1421,0,0,0,0,0,0,0,0,0,0,0,0,0,-0.1329,-0.1314,-0.1332,-0.1347,-0.1349,-0.1359,-0.136,-0.136,-0.1382,-0.1382,-0.1383,-0.1383,-0.1419,-0.142,-0.1421,-0.142,0,0,-0.1425,-0.1425,0,0,0,0,0,0,0,0,-0.1328,-0.133,-0.1344,-0.1346,-0.1348,-0.1368,-0.1367,-0.1381,-0.1382,-0.1369,-0.1383,-0.1383,-0.1403,-0.1406,-0.1409,-0.1422,-0.1423,-0.1425,-0.1425,-0.1426,-0.1426,0,0,0,0,0,0,0,-0.1327,-0.1329,-0.1342,-0.1345,-0.1347,-0.1358,-0.1361,-0.137,-0.1383,-0.137,-0.1372,-0.1376,-0.1404,-0.1408,-0.141,-0.1424,-0.1425,-0.1426,-0.1426,-0.1427,-0.1475,-0.1475,0,0,0,0,0,0,-0.1324,-0.1328,-0.1341,-0.1343,-0.134,-0.1358,-0.1361,-0.1361,-0.1383,-0.1387,-0.1375,-0.1376,-0.1406,-0.1409,-0.1412,-0.1471,-0.1426,-0.1427,-0.1428,-0.1474,-0.1475,-0.1475,0,0,0,0,0,0,-0.1323,-0.1324,-0.134,-0.1337,-0.134,-0.1358,-0.1358,-0.1361,-0.1386,-0.1387,-0.1391,-0.1399,-0.1406,-0.141,-0.1425,-0.147,-0.1427,-0.1428,-0.1473,-0.1474,-0.1475,-0.1551,0,0,0,0,0,0,-0.1322,-0.1324,-0.1333,-0.1336,-0.134,-0.1355,-0.1358,-0.1361,-0.1386,-0.1389,-0.1408,-0.1411,-0.1407,-0.1424,-0.1426,-0.1471,-0.1429,-0.1472,-0.1474,-0.1475,-0.1548,-0.1555,-0.1561,0,0,0,0,0,-0.1322,-0.1326,-0.1333,-0.1335,-0.1347,-0.1356,-0.1359,-0.1373,-0.1387,-0.1397,-0.1405,-0.1411,-0.1433,-0.1424,-0.1428,-0.1474,-0.1472,-0.1473,-0.1475,-0.1545,-0.1554,-0.1561,0,0,0,0,0,0,-0.1321,-0.1329,-0.1336,-0.1343,-0.1354,-0.136,-0.1374,-0.1386,-0.1402,-0.141,-0.1414,-0.1416,-0.1449,-0.1441,-0.1431,-0.1487,-0.1456,-0.1458,-0.1509,-0.1517,-0.1523,-0.1524,-0.143,0,0,0,0,0,-0.1325,-0.1333,-0.1341,-0.1349,-0.1357,-0.1372,-0.1383,-0.1392,-0.1402,-0.1411,-0.1429,-0.1442,-0.1453,-0.1468,-0.1472,-0.1502,-0.1477,-0.1533,-0.1539,-0.1545,-0.1546,-0.154,-0.1547,-0.148,-0.148,-0.148,0,0,-0.1326,-0.1333,-0.1338,-0.135,-0.1363,-0.1381,-0.138,-0.1399,-0.1426,-0.1412,-0.1461,-0.1465,-0.1462,-0.1495,-0.151,-0.1499,-0.1549,-0.1547,-0.1552,-0.1549,-0.1543,-0.1549,-0.1555,-0.1481,-0.1481,-0.148,0,0,-0.1328,-0.1342,-0.1349,-0.1365,-0.1386,-0.1398,-0.1409,-0.1432,-0.1456,-0.1485,-0.149,-0.1514,-0.1536,-0.155,-0.1556,-0.1597,-0.1577,-0.1607,-0.1651,-0.1647,-0.1652,-0.1657,-0.1627,-0.1628,-0.1617,-0.1617,-0.1617,0,-0.1333,-0.1341,-0.1354,-0.137,-0.1389,-0.141,-0.143,-0.1457,-0.1486,-0.1509,-0.1508,-0.1552,-0.1562,-0.16,-0.1621,-0.1616,-0.1595,-0.1628,-0.1656,-0.166,-0.1664,-0.1631,-0.1632,-0.1621,-0.162,-0.162,-0.162,0,-0.1334,-0.1356,-0.1365,-0.1395,-0.1419,-0.1438,-0.1475,-0.1513,-0.1545,-0.1567,-0.1614,-0.1621,-0.1645,-0.1665,-0.1659,-0.1703,-0.1672,-0.1662,-0.1641,-0.1676,-0.1638,-0.1638,-0.1626,-0.1625,-0.1624,-0.1623,0,0,-0.1307,-0.1356,-0.1362,-0.1386,-0.1436,-0.1452,-0.1511,-0.1558,-0.1594,-0.1636,-0.1675,-0.1718,-0.1725,-0.1731,-0.1739,-0.175,-0.1765,-0.1726,-0.1724,-0.1702,-0.1735,-0.1604,-0.1589,-0.1762,-0.1763,-0.1763,-0.1697,0,-0.1306,-0.1338,-0.137,-0.1417,-0.1437,-0.149,-0.1539,-0.159,-0.1631,-0.1676,-0.1708,-0.1737,-0.175,-0.1762,-0.1782,-0.1769,-0.1767,-0.1783,-0.1699,-0.1696,-0.1581,-0.1586,-0.1765,-0.1696,-0.1696,-0.1696,-0.1695,0,-0.1291,-0.1318,-0.1358,-0.1427,-0.1443,-0.148,-0.1559,-0.1604,-0.1674,-0.1703,-0.1748,-0.1764,-0.1807,-0.1796,-0.18,-0.1809,-0.1779,-0.1761,-0.1758,-0.1607,-0.1563,-0.1654,-0.1693,-0.1693,-0.1694,-0.1694,-0.1694,0,-0.1248,-0.1312,-0.1345,-0.1369,-0.1447,-0.1487,-0.1535,-0.161,-0.1645,-0.1716,-0.1732,-0.1785,-0.1795,-0.1793,-0.1777,-0.1788,-0.175,-0.1753,-0.16,-0.159,-0.1697,-0.1693,-0.1733,-0.1733,-0.1734,-0.1734,-0.1734,0,-0.1218,-0.1247,-0.133,-0.1346,-0.1395,-0.1462,-0.1516,-0.1573,-0.1636,-0.1664,-0.1737,-0.1741,-0.1794,-0.1785,-0.1772,-0.1674,-0.1742,-0.1596,-0.1564,-0.1728,-0.1728,-0.1695,-0.1692,-0.1731,-0.1732,-0.1732,-0.1733,0,-0.115,-0.1207,-0.125,-0.1341,-0.1372,-0.1404,-0.1492,-0.1521,-0.1592,-0.1626,-0.1644,-0.1704,-0.1675,-0.1695,-0.1673,-0.1633,-0.1574,-0.1518,-0.1676,-0.1655,-0.1417,-0.1419,-0.1337,-0.1332,-0.1327,-0.1324,-0.132,0,-0.1111,-0.1127,-0.123,-0.1258,-0.1299,-0.136,-0.1397,-0.1486,-0.1511,-0.1581,-0.158,-0.1581,-0.1603,-0.1457,-0.1501,-0.1438,-0.1423,-0.1395,-0.1426,-0.14,-0.1377,-0.1385,-0.1392,-0.1313,-0.1312,-0.1311,-0.131,0,-0.1036,-0.1086,-0.1124,-0.1182,-0.1231,-0.1274,-0.1333,-0.1335,-0.1426,-0.1501,-0.1455,-0.1426,-0.1378,-0.1352,-0.1303,-0.1273,-0.1426,-0.1349,-0.1359,-0.1387,-0.1371,-0.1354,-0.1366,-0.1295,-0.1297,-0.1298,-0.1299,0,-0.0984,-0.0991,-0.1054,-0.109,-0.115,-0.1166,-0.1213,-0.1226,-0.1252,-0.1335,-0.1311,-0.1313,-0.1354,-0.1261,-0.1228,-0.1174,-0.1157,-0.1144,-0.1164,-0.1181,-0.1162,-0.1121,-0.0927,0,0,0,0,0,-0.0925,-0.0924,-0.0956,-0.0994,-0.1048,-0.1076,-0.1159,-0.1208,-0.1294,-0.1219,-0.1257,-0.1203,-0.1129,-0.1134,-0.1039,-0.1156,-0.117,-0.1045,-0.117,-0.121,-0.1227,-0.1221,0,0,0,0,0,0,-0.0887,-0.0913,-0.092,-0.09,-0.0901,-0.0944,-0.0989,-0.1053,-0.1019,-0.1105,-0.1057,-0.1121,-0.1054,-0.1137,-0.1004,-0.1006,-0.106,-0.1053,-0.105,-0.12,-0.1216,-0.123,-0.123,0,0,0,0,0]},{"header":{"parameterUnit":"m.s-1","parameterCategory":2,"la1":30.2991,"la2":30.254,"lo1":-89.0895,"lo2":-89.0444,"dy":0.0017,"dx":0.0017,"nx":28,"ny":28,"refTime":"2023-07-17T21:00:00:Z","depth":"4","parameterNumber":3,"parameterNumberName":"V-component_of_CURRENTS"},"data":[0,0,0,0,0,0,0,0,0,0,0,0,0,0,0,0,0,0,0,0,0,0,0,0,0,0,0,0,0,0,0,0,0,0,0,0,0,0,0,0,0,0,0,0,0,0,0,0,0,0,0,0,0,0,0,0,0,0,-0.0375,-0.0374,0,-0.034,-0.034,-0.0339,-0.0312,-0.0312,-0.0311,-0.0311,-0.0268,-0.0267,-0.0266,0,0,0,0,0,0,0,0,0,0,0,0,0,-0.0391,-0.0391,-0.0375,-0.0374,-0.0374,-0.034,-0.034,-0.0339,-0.0312,-0.0312,-0.0311,-0.0311,-0.0268,-0.0267,-0.0266,0,0,0,0,0,0,0,0,0,0,0,0,0,-0.0373,-0.0391,-0.0375,-0.0356,-0.0354,-0.034,-0.034,-0.0339,-0.0312,-0.0312,-0.0311,-0.0311,-0.0268,-0.0267,-0.0266,-0.0266,0,0,-0.0262,-0.0261,0,0,0,0,0,0,0,0,-0.0374,-0.0373,-0.0359,-0.0357,-0.0355,-0.033,-0.0329,-0.0314,-0.0312,-0.0328,-0.0311,-0.0311,-0.0288,-0.0285,-0.028,-0.0264,-0.0262,-0.0261,-0.0261,-0.026,-0.026,0,0,0,0,0,0,0,-0.0376,-0.0374,-0.0361,-0.0359,-0.0356,-0.034,-0.0338,-0.0326,-0.0311,-0.0327,-0.0325,-0.0321,-0.0287,-0.0281,-0.0278,-0.0261,-0.0262,-0.026,-0.026,-0.0259,-0.022,-0.022,0,0,0,0,0,0,-0.0381,-0.0375,-0.0362,-0.036,-0.0364,-0.0341,-0.0338,-0.0338,-0.0311,-0.0306,-0.0321,-0.032,-0.0284,-0.028,-0.0277,-0.0258,-0.026,-0.0259,-0.0258,-0.0221,-0.022,-0.022,0,0,0,0,0,0,-0.0382,-0.0381,-0.0363,-0.0366,-0.0363,-0.0341,-0.0342,-0.0338,-0.0333,-0.0307,-0.0302,-0.0321,-0.0283,-0.0279,-0.0274,-0.0256,-0.0258,-0.0257,-0.0221,-0.0221,-0.022,-0.0231,0,0,0,0,0,0,-0.0383,-0.0381,-0.0386,-0.0367,-0.0363,-0.0361,-0.0342,-0.0338,-0.0332,-0.0329,-0.0305,-0.03,-0.0282,-0.0276,-0.0272,-0.0255,-0.0256,-0.0221,-0.0221,-0.022,-0.0231,-0.0231,-0.0231,0,0,0,0,0,-0.0384,-0.039,-0.0386,-0.0385,-0.0369,-0.0362,-0.0359,-0.0341,-0.0332,-0.0335,-0.032,-0.0301,-0.027,-0.0275,-0.0271,-0.0252,-0.0221,-0.0221,-0.022,-0.0231,-0.0231,-0.0231,0,0,0,0,0,0,-0.0394,-0.0388,-0.0383,-0.0386,-0.0378,-0.0357,-0.0359,-0.0346,-0.0336,-0.0338,-0.0309,-0.0304,-0.0288,-0.0275,-0.0282,-0.024,-0.0238,-0.0237,-0.0247,-0.0247,-0.0247,-0.025,-0.0255,0,0,0,0,0,-0.0401,-0.041,-0.0395,-0.0399,-0.0398,-0.038,-0.0375,-0.0367,-0.0354,-0.0349,-0.033,-0.0308,-0.0282,-0.0272,-0.0254,-0.0241,-0.0208,-0.0223,-0.0223,-0.0223,-0.0222,-0.0158,-0.0152,-0.0219,-0.0219,-0.0219,0,0,-0.0407,-0.0405,-0.0409,-0.0403,-0.0397,-0.0402,-0.0377,-0.0378,-0.0374,-0.0347,-0.034,-0.0313,-0.028,-0.026,-0.025,-0.0248,-0.0187,-0.0222,-0.0223,-0.0222,-0.0156,-0.015,-0.0144,-0.0218,-0.0218,-0.0218,0,0,-0.0428,-0.0423,-0.0439,-0.0435,-0.0432,-0.0422,-0.0425,-0.0409,-0.0395,-0.039,-0.0357,-0.0322,-0.0303,-0.026,-0.0239,-0.0231,-0.0192,-0.0225,-0.0225,-0.0162,-0.0156,-0.015,-0.0101,-0.009,-0.0222,-0.0222,-0.0222,0,-0.0437,-0.0452,-0.0442,-0.0454,-0.0455,-0.0434,-0.0449,-0.0431,-0.0414,-0.0396,-0.0394,-0.0324,-0.0296,-0.0242,-0.0235,-0.0228,-0.0196,-0.0226,-0.0161,-0.0154,-0.0148,-0.0099,-0.0088,-0.0223,-0.0223,-0.0223,-0.0223,0,-0.047,-0.048,-0.0489,-0.05,-0.05,-0.0509,-0.0488,-0.0482,-0.0464,-0.0433,-0.0384,-0.0339,-0.0293,-0.0269,-0.0251,-0.0185,-0.0178,-0.0169,-0.016,-0.0142,-0.0092,-0.008,-0.0223,-0.0223,-0.0223,-0.0223,0,0,-0.0492,-0.0511,-0.0514,-0.0527,-0.0526,-0.0531,-0.0526,-0.0504,-0.0489,-0.0448,-0.0412,-0.0344,-0.0304,-0.0277,-0.0232,-0.0173,-0.0096,-0.0157,-0.0153,-0.0107,0.0034,0.0022,0.0034,-0.0076,-0.0074,-0.0072,0.0051,0,-0.0521,-0.0559,-0.0557,-0.0586,-0.0602,-0.0583,-0.058,-0.0555,-0.0518,-0.0477,-0.0394,-0.0351,-0.031,-0.0288,-0.0215,-0.013,-0.0065,-0.0131,0.0009,0.0013,0.0001,0.0048,-0.0066,0.006,0.0063,0.0065,0.0067,0,-0.0552,-0.0574,-0.0614,-0.063,-0.0636,-0.0651,-0.064,-0.0628,-0.0556,-0.0524,-0.0448,-0.039,-0.0289,-0.0268,-0.0093,-0.014,-0.0055,0.0014,0.0021,0.0021,0.0023,0.004,0.0089,0.0088,0.0086,0.0084,0.0083,0,-0.0576,-0.0608,-0.0646,-0.0652,-0.0669,-0.0684,-0.0687,-0.0643,-0.0625,-0.0549,-0.0526,-0.0398,-0.0337,-0.021,-0.0065,-0.008,0.0123,0.0121,0.0195,0.0195,0.0173,0.0165,0.0247,0.0247,0.0247,0.0246,0.0246,0,-0.0598,-0.0627,-0.0665,-0.0684,-0.0725,-0.072,-0.0733,-0.0715,-0.0671,-0.0632,-0.0549,-0.0487,-0.0319,-0.0187,-0.0062,0.011,0.0133,0.0208,0.0233,0.0164,0.0154,0.0182,0.0172,0.0251,0.025,0.0249,0.0248,0,-0.0612,-0.0638,-0.0683,-0.0722,-0.0739,-0.0766,-0.0783,-0.0778,-0.0741,-0.0689,-0.0673,-0.0537,-0.036,-0.0192,0.0028,0.011,0.0269,0.0323,0.0236,0.0253,0.0295,0.0284,0.0414,0.0414,0.0415,0.0416,0.0416,0,-0.0618,-0.0646,-0.0714,-0.0748,-0.0772,-0.0808,-0.0828,-0.0815,-0.0798,-0.0705,-0.0676,-0.0517,-0.0403,-0.0091,0.0067,0.0302,0.0328,0.0387,0.0345,0.0305,0.0317,0.0304,0.0293,0.0417,0.0417,0.0417,0.0418,0,-0.0626,-0.066,-0.0698,-0.0772,-0.0817,-0.0852,-0.0874,-0.0867,-0.0822,-0.0797,-0.0642,-0.0488,-0.0283,-0.0065,0.0114,0.0278,0.0332,0.0394,0.0393,0.0354,0.031,0.0319,0.0306,0.042,0.0419,0.0419,0.0419,0,-0.0629,-0.0664,-0.0725,-0.0784,-0.0844,-0.0875,-0.0883,-0.0843,-0.0819,-0.0714,-0.0652,-0.0439,-0.031,-0.0074,0.0095,0.0249,0.0275,0.0293,0.0298,0.0297,0.0215,0.0139,0.0233,0,0,0,0,0,-0.0628,-0.0672,-0.0729,-0.0801,-0.0858,-0.0892,-0.0904,-0.0896,-0.0852,-0.0739,-0.0691,-0.0492,-0.022,-0.0103,0.0055,0.0077,0.0272,0.0258,0.0288,0.0432,0.0429,0.035,0,0,0,0,0,0,-0.0633,-0.069,-0.0726,-0.0799,-0.0848,-0.0905,-0.091,-0.0881,-0.0806,-0.0734,-0.0573,-0.049,-0.0217,-0.0301,0.005,0.0094,0.0123,0.0389,0.0391,0.0433,0.0431,0.0429,0.0346,0,0,0,0,0]}]]